When you browse on this site, cookies collect data to enhance your experience and personalize the content and advertising you see.
Visit our Privacy Policy to learn more. By continuing to use the site, you agree to this use of cookies and data.
  • In Hungary
  • List of Countries
  • For 7 days
  • Water Temperature
  • Weather Map
  • News
  • Weather Widgets
  • user-avatar
    Login

    Hourly Weather Ramelevschina

    Today, 10 April, Friday

    Time Temperature Precipitation Wind Pressure Humidity
    00:00 0°C° 0 mm 4 mps 747 mmHg 76%
    01:00 -1°C° 0 mm 4 mps 747 mmHg 77%
    02:00 -1°C° 0 mm 4 mps 747 mmHg 78%
    03:00 -2°C° 0 mm 4 mps 748 mmHg 81%
    04:00 -2°C° 0 mm 4 mps 748 mmHg 84%
    05:00 -2°C° 0 mm 4 mps 748 mmHg 86%
    06:00 -1°C° 0 mm 4 mps 749 mmHg 83%
    07:00 0°C° 0 mm 4 mps 749 mmHg 79%
    08:00 +1°C° 0 mm 5 mps 749 mmHg 75%
    09:00 +2°C° 0 mm 5 mps 750 mmHg 67%
    10:00 +5°C° 0 mm 5 mps 750 mmHg 59%
    11:00 +6°C° 0 mm 5 mps 750 mmHg 51%
    12:00 +7°C° 0 mm 5 mps 750 mmHg 48%
    13:00 +7°C° 0 mm 5 mps 750 mmHg 46%
    14:00 +8°C° 0 mm 5 mps 750 mmHg 43%
    15:00 +7°C° 0.2 mm 5 mps 749 mmHg 46%
    16:00 +7°C° 0.2 mm 5 mps 749 mmHg 49%
    17:00 +7°C° 0.2 mm 5 mps 749 mmHg 53%
    18:00 +6°C° 0.1 mm 4 mps 749 mmHg 57%
    19:00 +5°C° 0.1 mm 4 mps 749 mmHg 62%
    20:00 +3°C° 0.1 mm 3 mps 750 mmHg 66%
    21:00 +3°C° 0 mm 3 mps 750 mmHg 67%
    22:00 +1°C° 0 mm 4 mps 750 mmHg 67%
    23:00 +1°C° 0 mm 4 mps 750 mmHg 67%

    Tomorrow, 11 April, Saturday

    Time Temperature Precipitation Wind Pressure Humidity
    00:00 0°C° 0 mm 4 mps 750 mmHg 69%
    01:00 -1°C° 0 mm 4 mps 751 mmHg 72%
    02:00 -2°C° 0 mm 4 mps 751 mmHg 74%
    03:00 -2°C° 0 mm 4 mps 751 mmHg 78%
    04:00 -2°C° 0 mm 4 mps 751 mmHg 81%
    05:00 -3°C° 0 mm 4 mps 752 mmHg 85%
    06:00 -2°C° 0 mm 4 mps 752 mmHg 76%
    07:00 -1°C° 0 mm 5 mps 753 mmHg 67%
    08:00 -1°C° 0 mm 6 mps 753 mmHg 58%
    09:00 +1°C° 0 mm 6 mps 753 mmHg 51%
    10:00 +2°C° 0 mm 5 mps 754 mmHg 45%
    11:00 +3°C° 0 mm 5 mps 754 mmHg 38%
    12:00 +5°C° 0 mm 5 mps 754 mmHg 36%
    13:00 +6°C° 0 mm 5 mps 754 mmHg 34%
    14:00 +6°C° 0 mm 5 mps 754 mmHg 32%
    15:00 +6°C° 0 mm 5 mps 754 mmHg 35%
    16:00 +6°C° 0 mm 4 mps 754 mmHg 38%
    17:00 +6°C° 0 mm 4 mps 754 mmHg 41%
    18:00 +5°C° 0 mm 4 mps 754 mmHg 47%
    19:00 +4°C° 0 mm 3 mps 754 mmHg 54%
    20:00 +4°C° 0 mm 2 mps 754 mmHg 60%
    21:00 +3°C° 0 mm 2 mps 754 mmHg 66%
    22:00 +3°C° 0 mm 2 mps 754 mmHg 72%
    23:00 +2°C° 0 mm 2 mps 754 mmHg 78%

    Day after tomorrow, 12 April, Sunday

    Time Temperature Precipitation Wind Pressure Humidity
    00:00 +2°C° 0 mm 2 mps 754 mmHg 80%
    01:00 +2°C° 0 mm 2 mps 754 mmHg 81%
    02:00 +1°C° 0 mm 2 mps 754 mmHg 83%
    03:00 +1°C° 0 mm 2 mps 754 mmHg 83%
    04:00 +1°C° 0 mm 2 mps 753 mmHg 83%
    05:00 +1°C° 0 mm 2 mps 753 mmHg 82%
    06:00 +1°C° 0 mm 3 mps 753 mmHg 75%
    07:00 +3°C° 0 mm 3 mps 753 mmHg 69%
    08:00 +4°C° 0 mm 4 mps 752 mmHg 62%
    09:00 +5°C° 0 mm 4 mps 752 mmHg 57%
    10:00 +6°C° 0 mm 5 mps 751 mmHg 52%
    11:00 +7°C° 0 mm 6 mps 751 mmHg 46%
    12:00 +7°C° 0 mm 6 mps 750 mmHg 49%
    13:00 +6°C° 0 mm 7 mps 750 mmHg 52%
    14:00 +6°C° 0 mm 7 mps 749 mmHg 54%
    15:00 +6°C° 0.1 mm 7 mps 748 mmHg 58%
    16:00 +7°C° 0.1 mm 6 mps 748 mmHg 62%
    17:00 +7°C° 0.1 mm 6 mps 747 mmHg 66%
    18:00 +5°C° 0.1 mm 6 mps 746 mmHg 71%
    19:00 +5°C° 0.1 mm 6 mps 746 mmHg 77%
    20:00 +4°C° 0.1 mm 6 mps 745 mmHg 82%
    21:00 +5°C° 0.3 mm 6 mps 744 mmHg 81%
    22:00 +5°C° 0.3 mm 6 mps 744 mmHg 80%
    23:00 +6°C° 0.3 mm 5 mps 743 mmHg 79%

    13 April, Monday

    Time Temperature Precipitation Wind Pressure Humidity
    00:00 +5°C° 0.1 mm 6 mps 743 mmHg 78%
    01:00 +5°C° 0.1 mm 6 mps 742 mmHg 77%
    02:00 +7°C° 0.1 mm 6 mps 741 mmHg 76%
    03:00 +7°C° 0 mm 6 mps 741 mmHg 75%
    04:00 +5°C° 0 mm 6 mps 740 mmHg 74%
    05:00 +5°C° 0 mm 6 mps 740 mmHg 73%
    06:00 +7°C° 0 mm 6 mps 739 mmHg 71%
    07:00 +8°C° 0 mm 6 mps 739 mmHg 69%
    08:00 +8°C° 0 mm 6 mps 738 mmHg 67%
    09:00 +10°C° 0.1 mm 7 mps 737 mmHg 65%
    10:00 +11°C° 0.1 mm 7 mps 737 mmHg 62%
    11:00 +12°C° 0.1 mm 7 mps 736 mmHg 59%
    12:00 +11°C° 0.6 mm 7 mps 736 mmHg 66%
    13:00 +10°C° 0.6 mm 7 mps 736 mmHg 72%
    14:00 +9°C° 0.6 mm 6 mps 735 mmHg 79%
    15:00 +8°C° 1.2 mm 6 mps 735 mmHg 81%
    16:00 +7°C° 1.2 mm 6 mps 735 mmHg 83%
    17:00 +6°C° 1.2 mm 5 mps 735 mmHg 86%
    18:00 +5°C° 0.4 mm 5 mps 735 mmHg 88%
    19:00 +2°C° 0.4 mm 5 mps 735 mmHg 90%
    20:00 -1°C° 0.4 mm 6 mps 735 mmHg 93%
    21:00 0°C° 0 mm 5 mps 736 mmHg 86%
    22:00 0°C° 0 mm 4 mps 736 mmHg 80%
    23:00 0°C° 0 mm 4 mps 737 mmHg 73%

    14 April, Tuesday

    Time Temperature Precipitation Wind Pressure Humidity
    00:00 -1°C° 0 mm 4 mps 737 mmHg 73%
    01:00 -2°C° 0 mm 4 mps 737 mmHg 72%
    02:00 -3°C° 0 mm 4 mps 737 mmHg 72%
    03:00 -3°C° 0 mm 4 mps 738 mmHg 74%
    04:00 -4°C° 0 mm 3 mps 738 mmHg 75%
    05:00 -4°C° 0 mm 3 mps 738 mmHg 77%
    06:00 -2°C° 0 mm 3 mps 738 mmHg 70%
    07:00 -2°C° 0 mm 4 mps 738 mmHg 63%
    08:00 -1°C° 0 mm 5 mps 738 mmHg 56%
    09:00 0°C° 0 mm 5 mps 738 mmHg 52%
    10:00 +1°C° 0 mm 5 mps 738 mmHg 49%
    11:00 +2°C° 0 mm 5 mps 738 mmHg 45%
    12:00 +3°C° 0.1 mm 5 mps 737 mmHg 45%
    13:00 +3°C° 0.1 mm 5 mps 737 mmHg 44%
    14:00 +5°C° 0.1 mm 5 mps 737 mmHg 44%
    15:00 +3°C° 0.3 mm 5 mps 737 mmHg 48%
    16:00 +2°C° 0.3 mm 5 mps 737 mmHg 52%
    17:00 +3°C° 0.3 mm 4 mps 737 mmHg 57%
    18:00 +1°C° 0.1 mm 4 mps 737 mmHg 63%
    19:00 +1°C° 0.1 mm 3 mps 737 mmHg 69%
    20:00 0°C° 0.1 mm 3 mps 738 mmHg 75%
    21:00 -1°C° 0 mm 3 mps 738 mmHg 79%
    22:00 -2°C° 0 mm 3 mps 738 mmHg 82%
    23:00 -2°C° 0 mm 3 mps 739 mmHg 86%

    15 April, Wednesday

    Time Temperature Precipitation Wind Pressure Humidity
    00:00 -2°C° 0 mm 3 mps 739 mmHg 86%
    01:00 -2°C° 0 mm 3 mps 739 mmHg 87%
    02:00 -2°C° 0 mm 3 mps 740 mmHg 88%
    03:00 -2°C° 0 mm 3 mps 740 mmHg 88%
    04:00 -3°C° 0 mm 4 mps 740 mmHg 88%
    05:00 -3°C° 0 mm 4 mps 741 mmHg 88%
    06:00 -2°C° 0 mm 4 mps 741 mmHg 82%
    07:00 -1°C° 0 mm 5 mps 742 mmHg 75%
    08:00 0°C° 0 mm 5 mps 742 mmHg 69%
    09:00 +1°C° 0 mm 5 mps 742 mmHg 63%
    10:00 +2°C° 0 mm 6 mps 743 mmHg 57%
    11:00 +3°C° 0 mm 6 mps 743 mmHg 50%
    12:00 +4°C° 0 mm 6 mps 743 mmHg 49%
    13:00 +5°C° 0 mm 6 mps 743 mmHg 47%
    14:00 +5°C° 0 mm 6 mps 743 mmHg 45%
    15:00 +5°C° 0 mm 6 mps 743 mmHg 47%
    16:00 +4°C° 0 mm 6 mps 743 mmHg 49%
    17:00 +4°C° 0 mm 6 mps 744 mmHg 52%
    18:00 +3°C° 0 mm 5 mps 744 mmHg 58%
    19:00 +2°C° 0 mm 5 mps 744 mmHg 64%
    20:00 0°C° 0 mm 4 mps 744 mmHg 70%
    21:00 0°C° 0 mm 4 mps 744 mmHg 74%
    22:00 -1°C° 0 mm 4 mps 745 mmHg 78%
    23:00 -1°C° 0 mm 4 mps 745 mmHg 82%
    Show more